Regional Weather Roundup
Issued by NWS Charleston, SC

Current Version | Previous Version | Text Only | Print | Product List | Glossary On
Versions: 1 2 3 4 5 6 7 8 9 10 11 12 13 14 15 16 17 18 19 20 21 22 23 24 25 26 27 28 29 30 31 32 33 34 35 36 37 38 39 40 41 42 43 44 45 46 47 48 49 50
000 ASUS42 KCHS 291027 RWRCHS REGIONAL WEATHER ROUNDUP NATIONAL WEATHER SERVICE CHARLESTON SC 600 AM EDT WED JUL 29 2015 NOTE: "FAIR" INDICATES FEW OR NO CLOUDS BELOW 12,000 FEET WITH NO SIGNIFICANT WEATHER AND/OR OBSTRUCTIONS TO VISIBILITY. NOT ALL STATIONS ARE QUALITY CONTROLLED BY THE NATIONAL WEATHER SERVICE. USE DATA WITH CAUTION...ESPECIALLY DEWPOINT OBSERVATIONS. SCZ027-030-031-034>040-042>050-291100- ...SOUTHEAST SOUTH CAROLINA... CITY SKY/WX TMP DP RH WIND PRES REMARKS N CHARLESTON PTCLDY 75 72 90 NE5 29.95R WATERFRONT PRK N/A 78 76 94 N8 29.91R MOUNT PLEASANT FAIR 73 73 100 N3 29.96R JOHNS ISLAND FAIR 77 75 94 N6 29.95R PINOPOLIS NOT AVBL MONCKS CORNER FAIR 73 72 94 CALM 29.97R SUMMERVILLE FAIR 72 72 100 CALM 29.97R BEAUFORT MCAS CLEAR 78 75 90 N5 29.94R BEAUFORT ARPT FAIR 77 77 100 CALM 29.95R HILTON HEAD IS NOT AVBL WALTERBORO PTSUNNY 73 72 94 CALM 29.97R ALLENDALE FAIR 73 73 100 CALM 29.96R ...SOUTHERN MIDLANDS AND PEE DEE... CITY SKY/WX TMP DP RH WIND PRES REMARKS GEORGETOWN NOT AVBL KINGSTREE NOT AVBL ORANGEBURG PTCLDY 75 71 87 E5 29.97R BARNWELL FAIR 75 75 100 CALM 29.98R AIKEN PTSUNNY 73 70 88 SE3 30.00S MANNING NOT AVBL COLUMBIA PTCLDY 77 72 84 NE3 29.97R SUMTER MOCLDY 75 72 88 NE3 29.96R FLORENCE PTCLDY 75 71 87 NE5 29.97R MYRTLE BEACH CLEAR 75 70 83 N7 29.98R N MYRTLE BEACH CLEAR 72 70 93 NE6 29.96R $$ GAZ063-065-086>088-099>101-113>116-118-119-134>141-150-291100- ...SOUTHEAST GEORGIA... CITY SKY/WX TMP DP RH WIND PRES REMARKS SAVANNAH ARPT PTCLDY 77 74 90 NE3 29.94R HUNTER AAF CLEAR 77 77 100 NE2 29.92R FORT STEWART CLEAR 75 74 94 CALM 29.92R STATESBORO CLEAR 74 32 21 CALM 29.95R SYLVANIA SUNNY 77 76 99 E3 29.96R CLAXTON FAIR 73 73 100 CALM 29.95R ...CSRA...CENTRAL AND FAR SOUTHEAST GEORGIA... CITY SKY/WX TMP DP RH WIND PRES REMARKS THOMSON CLEAR 78 76 95 SE3 29.99R AUGUSTA-BUSH CLEAR 73 72 96 SE3 29.94R AUGUSTA-DANIEL PTCLDY 77 73 87 SE5 29.96R SWAINSBORO FAIR N/A N/A N/A SE5 29.95S VIDALIA CLEAR 75 73 94 CALM 29.95R EASTMAN FAIR 74 74 100 CALM 29.97R FOG HAZLEHURST FAIR 77 75 94 SE5 29.94R ALMA CLEAR 74 72 93 E3 29.94R WAYCROSS CLEAR 77 77 100 CALM 29.94S JESUP FAIR 73 73 100 CALM 29.96R BAXLEY FAIR 75 73 94 CALM 29.95R BRUNSWICK MOCLDY 72 72 100 CALM 29.95R SAINT SIMONS CLEAR 77 76 96 NW3 29.93R $$ SCZ027-028-034-036>038-045-046-048>050-GAZ119-141-291100- ...LAKE AND SUPPLEMENTAL COASTAL OBSERVATIONS... STATION/POSITION TIME TEMP WIND PRES WAVE SWELL AIR SEA DIR/SP/G HT/PER HT/PER/DIR (UTC) (F) (DEG/KT/KT) (MB) (FT/S) (FT/S/D) UPR LAKE MARION NOT AVBL WINYAH BAY 0945 80 70/ 8 1013.0S LAKE MURRAY 1000 78 110/ 5/ 6 1014.2R ACE BASIN NERRS NOT AVBL FORT PULASKI 1000 79 86 350/ 5/ 6 1014.3R SAPELO ISLAND 1000 79 310/ 3 1014.0R $$ ANZ835-935-AMZ111-154-330-350-352-354-370-450-454-472-291100- ...C-MAN AND BUOY OBSERVATIONS... STATION/POSITION TIME TEMP WIND PRES WAVE SWELL AIR SEA DIR/SP/G HT/PER HT/PER/DIR (UTC) (F) (DEG/KT/KT) (MB) (FT/S) (FT/S/D) BUOY 41004 0950 83 84 70/ 12/ 12 1012.9R 3/ 6 2/ 6 BUOY 41008 0950 81 82 50/ 8/ 10 1013.3R 2/ 5 2/ 90/ 5 FOLLY BEACH CMAN 1000 78 360/ 8/ 9 1014.0R CAPERS NEARSHORE 0908 81 70/ 12/ 14 1013.5S FRIPP NEARSHORE 0900 82 50/ 8/ 10 1013.2F STATION/POSITION TIME TEMP WIND PRES WAVE SWELL AIR SEA DIR/SP/G HT/PER HT/PER/DIR (UTC) (F) (DEG/KT/KT) (MB) (FT/S) (FT/S/D) 5E ST. MARYS GA 0921 82 N/A 2/ 4 FRYING PAN BUOY 0950 82 84 50/ 14/ 16 1013.9R 4/ 7 2/130/ 7 BUOY 41025 NOT AVBL CAPE LOOKOUT NC 1000 80 80/ 13/ 15 1014.6R BUOY 41002 0950 83 81 220/ 17/ 21 1012.8F 6/ 7 2/180/11 BUOY 41010 0920 83 84 210/ 14/ 17 1012.7F ST AUGUSTINE FL 1000 76 81 270/ 4/ 5 1014.2S $$

USA.gov is the U.S. government's official web portal to all federal, state and local government web resources and services.